| time (UTC) | temp C | wind direction | speed KPH | gust KPH | rain 1hr cm | rain 24hr cm | rain mn cm | humidity % | barometer mb |
| 20260504081519 | 11 | 266 | 16.1 | 24.1 | 0.00 | 0.00 | 0.00 | 75 | 1014.6 |
| 20260504044554 | 11 | 250 | 11.3 | 19.3 | 0.00 | 0.00 | 0.00 | 68 | 1013.7 |
| 20260504043050 | 11 | 229 | 11.3 | 22.5 | 0.00 | 0.00 | 0.00 | 63 | 1013.6 |
| 20260504041546 | 11 | 235 | 14.5 | 25.7 | 0.00 | 0.00 | 0.00 | 60 | 1013.5 |
| 20260504040046 | 11 | 256 | 12.9 | 25.7 | 0.00 | 0.00 | 0.00 | 61 | 1013.4 |
| 20260504034542 | 11 | 264 | 14.5 | 24.1 | 0.00 | 0.00 | 0.00 | 62 | 1013.2 |
| 20260504033049 | 11 | 261 | 11.3 | 20.9 | 0.00 | 0.00 | 0.00 | 63 | 1013.1 |
| 20260504031538 | 11 | 264 | 12.9 | 22.5 | 0.00 | 0.00 | 0.00 | 60 | 1013.2 |
| 20260504030038 | 11 | 257 | 14.5 | 24.1 | 0.00 | 0.00 | 0.00 | 57 | 1013.1 |
| 20260504024552 | 11 | 260 | 11.3 | 19.3 | 0.00 | 0.00 | 0.00 | 60 | 1013.1 |
| 20260504023036 | 11 | 243 | 12.9 | 17.7 | 0.00 | 0.00 | 0.00 | 60 | 1013.1 |
| 20260504021545 | 12 | 236 | 12.9 | 20.9 | 0.00 | 0.00 | 0.00 | 56 | 1013.1 |
| 20260504020036 | 12 | 265 | 11.3 | 19.3 | 0.00 | 0.00 | 0.00 | 58 | 1013.1 |
| 20260504014535 | 12 | 264 | 12.9 | 20.9 | 0.00 | 0.00 | 0.00 | 58 | 1013.0 |
| 20260504013038 | 12 | 274 | 12.9 | 19.3 | 0.00 | 0.00 | 0.00 | 55 | 1013.0 |
| 20260504011532 | 12 | 221 | 12.9 | 19.3 | 0.00 | 0.00 | 0.00 | 54 | 1012.7 |
| 20260504010030 | 12 | 264 | 9.7 | 16.1 | 0.00 | 0.00 | 0.00 | 57 | 1012.3 |
| 20260504004540 | 13 | 238 | 8.0 | 14.5 | 0.00 | 0.00 | 0.00 | 55 | 1012.3 |
| 20260504003028 | 12 | 262 | 6.4 | 14.5 | 0.00 | 0.00 | 0.00 | 53 | 1012.1 |
| 20260504001528 | 13 | 264 | 9.7 | 16.1 | 0.00 | 0.00 | 0.00 | 50 | 1012.0 |
| 20260504000027 | 13 | 248 | 8.0 | 14.5 | 0.00 | 0.00 | 0.00 | 53 | 1011.7 |
| 20260503234529 | 13 | 266 | 6.4 | 19.3 | 0.00 | 0.00 | 0.00 | 46 | 1011.6 |
| 20260503233030 | 14 | 273 | 4.8 | 17.7 | 0.00 | 0.00 | 0.00 | 44 | 1011.5 |
| 20260503231526 | 14 | 349 | 11.3 | 25.7 | 0.00 | 0.00 | 0.00 | 46 | 1011.4 |
| 20260503230026 | 14 | 295 | 16.1 | 30.6 | 0.00 | 0.00 | 0.00 | 40 | 1011.4 |
| 20260503224524 | 14 | 294 | 19.3 | 35.4 | 0.00 | 0.00 | 0.00 | 43 | 1011.3 |
| 20260503223023 | 14 | 295 | 24.1 | 35.4 | 0.00 | 0.00 | 0.00 | 42 | 1011.2 |
| 20260503221522 | 14 | 280 | 22.5 | 35.4 | 0.00 | 0.00 | 0.00 | 44 | 1011.1 |
| 20260503220020 | 14 | 311 | 29.0 | 40.2 | 0.00 | 0.00 | 0.00 | 40 | 1011.0 |
| 20260503214519 | 14 | 324 | 24.1 | 41.8 | 0.00 | 0.00 | 0.00 | 39 | 1011.0 |
| 20260503213019 | 14 | 286 | 27.4 | 43.5 | 0.00 | 0.00 | 0.00 | 45 | 1010.8 |
| 20260503211520 | 13 | 296 | 24.1 | 43.5 | 0.00 | 0.00 | 0.00 | 42 | 1010.9 |
| 20260503210016 | 13 | 322 | 17.7 | 30.6 | 0.00 | 0.00 | 0.00 | 45 | 1010.8 |
| 20260503204514 | 13 | 287 | 29.0 | 41.8 | 0.00 | 0.00 | 0.00 | 42 | 1010.8 |
| 20260503203014 | 13 | 297 | 27.4 | 40.2 | 0.00 | 0.00 | 0.00 | 38 | 1010.6 |
| 20260503201510 | 13 | 291 | 24.1 | 38.6 | 0.00 | 0.00 | 0.00 | 41 | 1010.7 |
| 20260503200010 | 13 | 314 | 20.9 | 51.5 | 0.00 | 0.00 | 0.00 | 44 | 1010.8 |
| 20260503194507 | 13 | 328 | 27.4 | 43.5 | 0.00 | 0.00 | 0.00 | 43 | 1011.1 |
| 20260503193018 | 12 | 317 | 29.0 | 38.6 | 0.00 | 0.00 | 0.00 | 47 | 1011.2 |
| 20260503191502 | 12 | 321 | 24.1 | 46.7 | 0.00 | 0.00 | 0.00 | 45 | 1011.2 |
| 20260503184608 | 12 | 317 | 20.9 | 38.6 | 0.00 | 0.00 | 0.00 | 47 | 1011.5 |
| 20260503183059 | 12 | 294 | 29.0 | 41.8 | 0.00 | 0.00 | 0.00 | 48 | 1011.5 |
| 20260503181559 | 12 | 297 | 17.7 | 38.6 | 0.00 | 0.00 | 0.00 | 49 | 1011.7 |
| 20260503180054 | 11 | 285 | 25.7 | 40.2 | 0.00 | 0.00 | 0.00 | 47 | 1011.6 |
| 20260503174606 | 11 | 310 | 29.0 | 40.2 | 0.00 | 0.00 | 0.00 | 48 | 1011.6 |
| 20260503173055 | 11 | 316 | 24.1 | 40.2 | 0.00 | 0.00 | 0.00 | 46 | 1011.7 |
| 20260503171549 | 11 | 316 | 29.0 | 40.2 | 0.00 | 0.00 | 0.00 | 48 | 1011.8 |